Location: Fort Wayne
(41.1310°N, 85.1290°W)
Time: 16:26:26
(UTC-04:00)

Meteor 2-10 Rocket - Visible Passes

Search period start: 20 August 2014 00:00
Search period end: 30 August 2014 00:00
Orbit: 734 x 886 km, 81.2° (Epoch: 20 August)

Date Brightness Start Highest point End Pass type
(mag) Time Alt. Az. Time Alt. Az. Time Alt. Az.
25 Aug 6.7 06:26:31 10° ESE 06:29:52 16° E 06:33:09 10° NE visible
26 Aug 7.0 06:04:25 10° E 06:05:58 11° E 06:07:31 10° ENE visible
29 Aug 5.6 06:30:07 10° SSE 06:35:05 34° E 06:39:54 10° NNE visible
